Location: Arroyo de San Miguel
(40.9167°N, 4.6667°W)
Time: 01:35:56
(UTC+00:00)

Cosmos 220 Rocket - Pass Details

Date: 19 May 2025
Orbit: 546 x 580 km, 74.0° (Epoch: 24 June)

Event Time Altitude Azimuth Distance (km) Brightness Sun altitude
Exits shadow 21:58:23 53° 82° (E) 683 4.0 -21.3°
Drops below altitude 10° 22:01:59 10° 28° (NNE) 1,829 6.8 -21.7°
Sets 22:04:11 0° 24° (NNE) 2,724 7.8 -21.9°
